TimePST,TemperatureF,Dew PointF,Humidity,Sea Level PressureIn,VisibilityMPH,Wind Direction,Wind SpeedMPH,Gust SpeedMPH,PrecipitationIn,Events,Conditions,WindDirDegrees,DateUTC
12:23 AM,57.2,55.4,94,30.11,8.0,NNW,5.8,-,N/A,,Overcast,330,2012-12-03 08:23:00
12:35 AM,57.2,55.4,94,30.12,8.0,NNW,5.8,-,N/A,,Overcast,330,2012-12-03 08:35:00
12:55 AM,55.9,55.0,97,30.08,9.0,NNW,4.6,-,N/A,,Overcast,330,2012-12-03 08:55:00
1:55 AM,55.0,53.1,93,30.09,10.0,NW,5.8,-,N/A,,Mostly Cloudy,320,2012-12-03 09:55:00
2:07 AM,53.6,51.8,94,30.12,10.0,NW,6.9,-,N/A,,Scattered Clouds,310,2012-12-03 10:07:00
2:42 AM,53.6,51.8,94,30.12,10.0,NNW,6.9,-,N/A,,Mostly Cloudy,330,2012-12-03 10:42:00
2:55 AM,54.0,52.0,93,30.10,10.0,NW,5.8,-,N/A,,Mostly Cloudy,320,2012-12-03 10:55:00
3:55 AM,54.0,52.0,93,30.10,10.0,NNW,3.5,-,N/A,,Mostly Cloudy,340,2012-12-03 11:55:00
4:27 AM,53.6,51.8,94,30.13,10.0,Calm,Calm,-,N/A,,Scattered Clouds,0,2012-12-03 12:27:00
4:55 AM,50.0,48.9,96,30.11,9.0,Calm,Calm,-,N/A,,Clear,0,2012-12-03 12:55:00
5:27 AM,48.2,46.4,93,30.13,9.0,ESE,3.5,-,N/A,,Partly Cloudy,110,2012-12-03 13:27:00
5:55 AM,48.0,46.9,96,30.11,2.5,Calm,Calm,-,N/A,,Mostly Cloudy,0,2012-12-03 13:55:00
5:59 AM,48.2,46.4,93,30.14,1.8,Calm,Calm,-,N/A,,Mostly Cloudy,0,2012-12-03 13:59:00
6:05 AM,46.4,46.4,100,30.14,1.5,SSE,3.5,-,N/A,,Mostly Cloudy,150,2012-12-03 14:05:00
6:08 AM,48.2,46.4,93,30.15,1.0,Calm,Calm,-,N/A,,Mist,0,2012-12-03 14:08:00
6:19 AM,48.2,46.4,93,30.15,0.8,Calm,Calm,-,N/A,,Mist,0,2012-12-03 14:19:00
6:30 AM,48.2,46.4,93,30.15,5.0,SE,3.5,-,N/A,,Mostly Cloudy,140,2012-12-03 14:30:00
6:55 AM,48.0,46.9,96,30.13,5.0,SE,3.5,-,N/A,,Mostly Cloudy,130,2012-12-03 14:55:00
7:55 AM,52.0,51.1,97,30.15,6.0,ENE,3.5,-,N/A,,Mostly Cloudy,60,2012-12-03 15:55:00
8:55 AM,57.0,53.1,87,30.17,7.0,ESE,3.5,-,N/A,,Mostly Cloudy,120,2012-12-03 16:55:00
9:13 AM,55.4,53.6,94,30.19,7.0,Calm,Calm,-,N/A,,Mostly Cloudy,0,2012-12-03 17:13:00
9:55 AM,57.9,52.0,81,30.19,10.0,NNE,3.5,-,N/A,,Mostly Cloudy,20,2012-12-03 17:55:00
10:55 AM,59.0,50.0,72,30.18,10.0,NNW,3.5,-,N/A,,Mostly Cloudy,340,2012-12-03 18:55:00
11:55 AM,59.0,51.1,75,30.16,10.0,WNW,4.6,-,N/A,,Mostly Cloudy,300,2012-12-03 19:55:00
12:55 PM,61.0,52.0,72,30.14,10.0,WNW,5.8,-,N/A,,Mostly Cloudy,300,2012-12-03 20:55:00
1:55 PM,61.0,52.0,72,30.14,10.0,West,9.2,-,N/A,,Mostly Cloudy,280,2012-12-03 21:55:00
2:55 PM,59.0,51.1,75,30.13,10.0,Variable,4.6,-,N/A,,Mostly Cloudy,0,2012-12-03 22:55:00
3:55 PM,57.9,50.0,75,30.14,10.0,NW,8.1,-,N/A,,Overcast,320,2012-12-03 23:55:00
4:55 PM,54.0,50.0,86,30.15,10.0,NW,5.8,-,N/A,,Mostly Cloudy,320,2012-12-04 00:55:00
5:55 PM,51.1,48.0,89,30.16,10.0,Calm,Calm,-,N/A,,Clear,0,2012-12-04 01:55:00
6:55 PM,50.0,46.9,89,30.16,10.0,Calm,Calm,-,N/A,,Clear,0,2012-12-04 02:55:00
7:55 PM,50.0,46.9,89,30.16,10.0,Calm,Calm,-,N/A,,Clear,0,2012-12-04 03:55:00
8:55 PM,50.0,48.0,93,30.17,10.0,SE,4.6,-,N/A,,Clear,130,2012-12-04 04:55:00
9:55 PM,50.0,48.0,93,30.17,10.0,ESE,6.9,-,N/A,,Clear,120,2012-12-04 05:55:00
10:55 PM,48.9,46.9,93,30.17,10.0,East,5.8,-,N/A,,Clear,90,2012-12-04 06:55:00
11:55 PM,50.0,48.0,93,30.15,10.0,ESE,9.2,-,N/A,,Clear,110,2012-12-04 07:55:00